Back to catalog

NOAA 16 DEB

AliveSSO
NORAD 42393·DEBRIS·🇺🇸 United States

Launched Sep 21, 2000 from Vandenberg Space Force Base

Loading…

Next Passes (next 24 hours)

TLE

FreshSource: Space-Track

Epoch: Sep 14, 2026, 03:03 UTC

1 42393U 00055SM  26257.12726689  .00004496  00000-0  17612-2 0  9996
2 42393  98.9201 352.3638 0035424   2.1976 357.9355 14.29621482541966

Track NOAA 16 DEB in real time with AllMySat

Download on the App Store